Simultaneous Nadir Overpasses (SNOs) Predictions

Prediction of SNOs between GOES-16 and NOAA-20 Satellite Orbit:

Table of predicted SNOs for the next 14.0 days since TLE Epoch: 1/30/2021
Index Date Time (GOES-16) GOES-16 Lat,Lon NOAA-20 Lat,Lon Distance(km) Time Diff (sec)
1 01/30/2021 06:44:48 -0.02, -75.21 0.96, -79.51 490.22 80
2 01/31/2021 06:23:23 -0.02, -75.21 -0.07, -74.98 26.49 80
3 02/02/2021 18:26:35 0.02, -75.23 -0.10, -75.75 59.63 80
4 02/03/2021 18:10:30 0.02, -75.23 0.92, -71.22 457.80 80
5 02/05/2021 06:32:18 -0.03, -75.25 0.28, -76.48 141.22 80
6 02/06/2021 06:10:53 -0.03, -75.25 -0.75, -71.95 376.06 80
7 02/07/2021 18:32:50 0.03, -75.27 -0.44, -77.25 227.03 80
8 02/08/2021 18:16:45 0.04, -75.28 0.59, -72.72 290.78 80
9 02/10/2021 06:38:33 -0.04, -75.30 0.56, -78.00 306.99 80
10 02/11/2021 06:17:09 -0.04, -75.31 -0.47, -73.47 211.08 80
11 02/12/2021 18:39:05 0.05, -75.34 -0.71, -78.77 390.85 80
